Weather History for Yuma MCAS, AZ

Change the Weather History Date:

Wednesday, December 5, 2012

  Actual Average Record
Temperature  
Mean Temperature 70 °F 59 °F  
Max Temperature 83 °F 70 °F 84 °F (1958)
Min Temperature 57 °F 48 °F 29 °F (1913)
Degree Days  
Heating Degree Days 0 6  
Month to date heating degree days 0 29  
Since 1 July heating degree days 22 97  
Cooling Degree Days 5 0  
Month to date cooling degree days 15 0  
Year to date cooling degree days 4929 4649  
Growing Degree Days 20 (Base 50)    
Moisture  
Dew Point 43 °F    
Average Humidity 39    
Maximum Humidity 57    
Minimum Humidity 21    
Precipitation  
Precipitation 0.00 in 0.02 in 0.75 in (2004)
Month to date precipitation 0.00 0.07  
Year to date precipitation 2.37 3.12  
Sea Level Pressure  
Sea Level Pressure 30.00 in    
Wind  
Wind Speed 4 mph (North)    
Max Wind Speed 9 mph    
Max Gust Speed 12 mph    
Visibility 10 miles    
Events      
T = Trace of Precipitation, MM = Missing Value Source: NWS Daily Summary

Daily Weather History Graph

Daily Weather History Graph

Search for Another Location

Airport:

Trip Planner

Search our weather history database for the weather conditions in past years. The results will help you decide how hot, cold, wet, or windy it might be!

Date:

Astronomy

Dec. 05, 2012 Rise Set
Actual Time 7:26 AM MST 5:32 PM MST
Civil Twilight 6:59 AM MST 5:59 PM MST
Nautical Twilight 6:28 AM MST 6:29 PM MST
Astronomical Twilight 5:58 AM MST 6:59 PM MST
Moon No Moon Rise 12:06 PM MST (12/5)
Length of Visible Light 11h 00m
Length of Day
10h 05m
Waning Gibbous, 59% of the Moon is Illuminated
Dec 5
Waning Gibbous
Dec 6
Last Quarter
Dec 13
New
Dec 19
First Quarter
Dec 28
Full

Hourly Weather History & Observations

Time (MST) Temp. Dew Point Humidity Pressure Visibility Wind Dir Wind Speed Gust Speed Precip Events Conditions
12:55 AM 64.9 °F 44.1 °F 47% 30.09 in 10.0 mi NNW 4.6 mph - N/A   Scattered Clouds
1:55 AM 62.1 °F 44.1 °F 52% 30.08 in 10.0 mi NNW 3.5 mph - N/A   Scattered Clouds
2:55 AM 62.1 °F 44.1 °F 52% 30.08 in 10.0 mi NNE 5.8 mph - N/A   Scattered Clouds
3:55 AM 60.1 °F 43.0 °F 53% 30.07 in 10.0 mi NNE 3.5 mph - N/A   Scattered Clouds
4:55 AM 59.0 °F 43.0 °F 55% 30.05 in 10.0 mi North 3.5 mph - N/A   Scattered Clouds
5:55 AM 59.0 °F 43.0 °F 55% 30.04 in 10.0 mi NE 3.5 mph - N/A   Scattered Clouds
7:55 AM 59.0 °F 43.0 °F 55% 30.06 in 10.0 mi ENE 3.5 mph - N/A   Mostly Cloudy
8:55 AM 64.0 °F 43.0 °F 46% 30.08 in 10.0 mi NNE 6.9 mph - N/A   Mostly Cloudy
9:55 AM 68.0 °F 44.1 °F 42% 30.08 in 10.0 mi ENE 4.6 mph - N/A   Scattered Clouds
10:55 AM 72.0 °F 44.1 °F 37% 30.07 in 10.0 mi NNE 5.8 mph - N/A   Scattered Clouds
11:55 AM 77.0 °F 44.1 °F 31% 30.04 in 10.0 mi NNE 5.8 mph - N/A   Mostly Cloudy
12:55 PM 80.1 °F 43.0 °F 27% 30.00 in 10.0 mi NNE 4.6 mph - N/A   Mostly Cloudy
1:55 PM 80.6 °F 42.8 °F 26% 29.96 in 10.0 mi Calm Calm - N/A   Smoke
2:55 PM 82.4 °F 39.2 °F 21% 29.94 in 10.0 mi NNW 4.6 mph - N/A   Smoke
3:55 PM 82.9 °F 39.9 °F 22% 29.93 in 10.0 mi NW 4.6 mph - N/A   Mostly Cloudy
4:55 PM 79.0 °F 41.0 °F 26% 29.91 in 9.0 mi West 3.5 mph - N/A   Mostly Cloudy
5:55 PM 75.0 °F 43.0 °F 32% 29.91 in 10.0 mi WSW 3.5 mph - N/A   Mostly Cloudy
6:55 PM 70.0 °F 43.0 °F 38% 29.92 in 10.0 mi Calm Calm - N/A   Mostly Cloudy
7:55 PM 70.0 °F 43.0 °F 38% 29.93 in 10.0 mi WSW 4.6 mph - N/A   Mostly Cloudy
8:55 PM 66.9 °F 43.0 °F 42% 29.93 in 10.0 mi WNW 3.5 mph - N/A   Mostly Cloudy
9:55 PM 64.0 °F 43.0 °F 46% 29.93 in 10.0 mi Calm Calm - N/A   Scattered Clouds
10:55 PM 63.0 °F 44.1 °F 50% 29.93 in 10.0 mi Calm Calm - N/A   Scattered Clouds
11:55 PM 61.0 °F 45.0 °F 56% 29.92 in 10.0 mi SSE 3.5 mph - N/A   Scattered Clouds